Wind_Speed
86 85 84 83 82 81 81 80 80 79 79 79 78 76 74 72 71 69 68 67 67 67 66 66 65 64 63 63 63 63 63 63 63 63 63 63 63 64 64 64 65 65 65 65 65 66 66 66 67 67 67 67 68 68 68 69 69 69 69 69 70 70 72 74 76 78 79 80 80 80 81 82 84 86 89 94 97 100 100 100 100 101 102 103 102 99
85 84 83 82 82 82 81 81 80 79 78 77 76 74 72 70 68 67 66 65 65 65 65 64 64 63 62 62 62 62 62 62 62 62 62 62 62 63 63 63 64 64 64 64 64 65 65 65 66 66 66 66 67 67 68 68 69 69 70 70 70 70 71 73 75 78 79 80 80 80 80 81 82 83 86 90 94 98 100 100 99 99 101 103 104 103
84 83 83 82 82 82 82 82 80 79 77 75 73 71 69 67 66 65 64 64 64 63 63 63 62 62 61 61 61 61 61 61 61 61 61 61 61 61 62 62 62 62 62 62 63 63 64 64 64 65 65 66 66 66 67 68 68 69 69 70 70 70 71 72 75 77 79 80 80 79 79 80 80 81 83 86 90 94 98 100 100 99 99 100 102 104
83 82 83 83 83 83 82 82 80 78 76 73 70 68 66 65 64 63 63 62 62 62 61 61 61 60 60 60 59 59 59 60 60 60 59 59 59 59 60 60 60 60 61 61 61 62 62 63 63 64 64 64 65 65 66 66 67 68 68 69 69 70 71 72 75 77 79 80 80 79 79 79 79 80 80 82 85 89 94 97 99 99 99 99 100 102
83 83 83 83 83 83 82 81 79 76 74 71 68 65 64 63 62 62 61 61 60 60 60 59 59 59 58 58 58 58 58 58 58 58 58 58 58 58 58 58 58 59 59 60 60 61 61 62 62 63 63 63 63 64 64 65 65 66 67 68 69 70 71 73 75 77 79 80 80 80 79 78 78 78 78 79 81 84 88 93 97 99 99 98 98 99
83 83 83 83 83 82 81 79 76 73 71 68 66 64 62 61 61 60 60 59 59 59 58 58 57 57 56 56 56 56 56 56 56 56 56 56 56 56 56 56 57 57 58 59 60 60 61 61 62 62 62 62 62 62 62 63 63 64 65 66 68 70 72 73 75 77 79 81 81 80 78 77 77 76 76 76 77 79 83 87 92 96 98 98 97 97
84 84 83 83 83 82 79 76 73 70 68 66 65 63 61 60 59 59 59 58 58 57 57 56 55 54 54 54 54 54 54 54 54 54 54 54 54 55 55 55 56 57 58 59 59 60 60 61 61 61 60 60 60 60 60 61 62 63 64 65 67 69 71 73 75 77 79 80 80 79 78 76 75 75 74 74 75 76 78 81 86 90 94 95 95 95
85 85 84 83 82 80 77 74 70 68 66 65 64 62 61 59 59 58 57 57 56 56 55 54 53 52 52 52 52 52 52 52 52 52 52 53 53 54 54 55 55 56 57 58 59 59 59 59 59 59 59 58 58 58 58 59 60 61 62 63 65 67 69 72 74 77 79 80 80 79 77 75 74 74 73 73 73 73 74 76 80 84 88 91 93 93
86 85 84 82 80 77 74 71 68 65 64 63 62 61 60 59 58 57 56 55 54 54 53 53 52 51 50 50 50 51 51 51 51 51 51 52 52 53 53 54 55 55 56 56 57 57 58 58 58 57 57 56 56 56 56 57 58 59 60 61 63 65 68 70 73 76 78 79 79 78 76 75 74 73 73 73 72 72 71 72 74 78 82 86 89 90
86 85 83 80 77 74 71 69 66 64 62 62 61 60 59 58 58 57 56 54 52 51 51 51 51 50 49 49 49 50 50 50 50 50 50 51 52 52 53 53 54 54 54 54 55 55 55 55 55 54 54 53 53 53 54 55 56 57 58 59 61 63 66 69 72 75 77 78 78 78 76 75 74 73 73 72 72 70 69 69 69 72 75 79 83 86
85 83 81 78 75 71 69 67 65 63 61 60 59 58 57 57 57 57 56 54 51 50 49 49 49 49 49 49 49 49 49 50 50 49 49 50 50 51 52 52 52 52 52 51 51 51 52 52 52 51 51 50 50 50 51 52 53 55 56 57 59 61 64 67 70 74 76 78 78 78 76 75 74 73 72 72 71 69 68 67 67 67 69 73 76 80
83 80 78 75 72 69 67 66 64 62 60 59 58 58 57 56 56 56 56 54 52 50 48 48 47 47 48 48 49 49 49 49 49 49 48 48 48 49 50 50 49 49 48 48 48 48 48 48 48 48 47 46 46 47 47 48 50 51 53 54 56 59 62 65 68 72 75 77 78 77 76 75 73 73 72 71 70 69 67 66 66 65 66 68 70 74
80 78 75 72 70 68 66 64 63 61 59 58 57 57 57 56 55 55 55 53 52 50 49 48 47 46 46 47 48 49 49 49 48 47 46 46 46 46 46 46 46 45 45 44 44 44 44 44 44 44 44 43 43 43 44 45 46 48 50 52 54 57 60 63 66 70 74 76 77 77 76 75 73 73 72 71 70 68 67 66 65 65 65 65 66 68
77 75 72 70 68 66 64 63 61 60 58 57 57 57 57 56 55 55 54 53 51 50 49 48 47 45 45 45 46 47 48 48 46 45 43 42 42 42 43 43 42 41 41 41 40 41 41 41 41 41 40 40 40 40 41 42 43 45 47 49 51 54 57 61 64 68 72 75 77 77 76 75 74 73 72 71 69 67 66 65 65 64 64 64 64 65
73 71 70 68 66 64 63 61 60 59 58 57 57 57 56 56 55 54 54 53 52 50 49 48 47 45 44 43 44 45 45 45 44 42 39 38 37 38 39 39 39 38 37 37 37 37 37 38 38 37 37 37 37 37 38 39 41 42 44 46 48 51 54 58 62 67 71 75 77 77 76 75 73 72 71 69 67 65 64 63 63 63 63 63 63 63
70 68 67 65 64 62 61 60 59 58 57 57 56 56 56 56 55 54 53 53 51 50 49 48 46 44 42 40 40 41 42 42 41 39 36 34 33 34 36 36 36 35 34 34 33 33 33 33 33 33 33 33 33 34 35 37 38 40 42 44 46 48 52 56 60 65 70 74 76 77 76 74 72 71 69 67 65 63 62 61 61 61 61 61 61 61
67 66 64 63 62 60 59 58 57 57 57 57 56 56 56 55 54 53 53 52 51 50 48 47 45 43 40 37 35 36 38 39 38 36 33 30 30 31 33 34 33 31 30 30 29 29 28 28 28 28 28 28 29 30 32 33 35 37 39 41 43 46 50 54 59 65 69 73 75 76 74 73 71 69 67 65 63 61 60 59 59 59 59 59 59 60
65 64 62 61 60 59 58 57 56 57 57 57 57 56 55 54 54 53 52 51 49 48 46 44 42 41 38 35 32 32 34 35 35 33 30 27 27 28 30 30 29 27 26 25 25 24 23 22 22 22 22 23 24 26 27 29 32 34 37 39 41 44 48 53 58 64 69 72 74 74 72 70 68 67 65 63 61 59 58 57 57 57 57 57 57 58
63 62 60 60 59 58 57 56 56 57 57 57 57 56 55 54 52 51 50 48 46 44 42 40 38 37 35 32 30 30 32 33 32 30 27 25 24 25 27 27 26 24 22 21 19 18 17 16 16 16 17 18 20 21 23 25 27 30 33 36 40 43 47 51 57 62 68 71 72 72 70 68 67 65 63 61 59 58 57 56 56 56 56 56 56 56
62 60 58 58 58 58 57 56 56 56 57 57 57 56 55 53 51 49 46 43 40 37 36 35 33 32 31 29 28 28 29 30 29 27 25 23 22 23 24 24 22 20 18 16 15 14 13 13 12 13 14 16 17 18 20 21 24 27 30 34 37 41 45 49 55 60 65 69 70 70 68 67 65 64 62 60 58 57 56 55 55 55 55 55 55 54
60 58 57 57 57 57 57 56 56 56 57 57 56 55 53 51 48 44 40 36 33 30 29 28 28 28 28 27 26 26 27 28 27 25 23 21 20 20 21 21 19 17 14 13 12 12 11 11 10 11 12 13 15 17 19 21 23 25 28 31 35 39 43 47 52 58 63 66 68 68 67 66 65 63 61 59 58 56 55 55 55 55 55 55 54 54
58 57 56 56 56 57 57 56 56 55 55 55 54 52 50 46 42 37 33 29 26 24 24 24 25 25 25 25 24 24 25 25 25 23 21 19 17 17 18 18 17 15 13 12 12 12 11 10 9 9 9 10 12 15 18 21 24 25 27 29 32 36 40 45 50 56 61 64 67 67 67 66 64 62 60 58 57 56 55 54 54 54 54 54 54 54
57 56 56 56 56 56 56 55 55 54 53 51 50 47 44 40 36 31 27 24 22 21 22 22 22 23 23 23 22 22 23 23 23 22 20 17 15 14 15 16 16 14 13 13 13 13 12 11 10 9 8 8 9 12 16 21 24 26 27 28 30 33 38 43 48 54 59 63 65 66 65 64 62 60 58 56 55 54 54 53 53 53 54 54 53 53
56 56 55 55 55 55 54 54 52 51 49 47 44 41 37 34 30 26 23 21 20 20 20 20 21 21 22 22 21 21 20 21 21 20 18 16 13 13 14 16 16 16 15 14 14 13 13 12 12 11 10 9 9 11 15 20 24 27 26 26 27 30 35 40 46 52 57 61 63 63 62 61 59 57 56 54 53 52 52 52 52 52 52 52 52 52
54 54 54 54 53 53 52 50 48 46 43 41 38 35 32 28 24 21 20 19 19 19 19 19 20 21 23 23 22 21 20 20 20 19 18 15 13 11 13 15 16 16 15 14 14 14 14 13 13 13 12 11 11 11 15 20 24 26 25 24 25 28 32 38 44 49 54 58 60 60 60 58 57 55 54 53 52 52 51 51 51 51 52 52 52 52
53 53 52 51 50 49 47 44 42 40 37 35 33 31 28 24 21 19 18 19 19 18 17 17 18 19 20 22 23 23 21 20 20 19 18 16 13 11 12 14 16 16 15 14 14 14 14 14 14 14 13 12 11 13 16 20 24 25 24 22 23 25 30 35 41 47 51 55 57 58 58 57 55 54 53 52 52 51 51 51 52 52 52 53 53 53
50 49 48 47 45 43 40 37 35 33 32 30 29 28 26 24 21 19 19 19 18 17 16 16 16 16 17 18 20 21 21 21 21 20 19 17 15 13 12 14 16 16 15 14 14 14 14 13 13 12 11 10 11 14 18 21 23 23 21 20 20 23 27 33 38 44 49 52 55 56 56 55 54 53 53 52 52 52 52 52 53 53 54 54 55 55
45 44 42 40 38 35 33 31 29 28 28 27 27 27 26 25 23 21 20 19 18 17 16 17 17 16 16 16 16 17 18 19 20 21 20 19 17 15 14 14 16 16 16 15 13 13 12 12 11 9 8 9 12 16 19 21 21 19 17 17 18 21 25 30 36 41 46 49 52 53 54 53 53 52 52 52 52 53 53 54 54 55 56 57 57 57
39 37 35 33 31 29 28 27 26 26 26 26 27 27 27 27 26 24 22 20 19 18 17 18 18 18 18 17 16 15 15 17 19 20 20 20 18 16 15 15 16 16 16 15 12 11 10 9 7 5 6 9 13 17 20 20 18 16 14 14 15 18 22 27 33 38 42 46 49 51 52 52 51 51 51 52 52 53 54 55 56 57 58 58 59 59
32 31 29 28 27 26 25 25 25 26 26 27 28 28 28 28 28 26 24 22 21 20 19 19 19 19 19 18 16 14 14 15 18 20 21 20 19 17 16 16 16 16 15 13 11 8 7 5 3 2 5 10 15 19 20 18 15 12 11 11 13 16 20 24 29 34 38 42 46 48 50 50 50 50 51 51 52 53 55 56 57 58 59 60 60 60
27 26 25 25 24 25 25 25 26 27 27 28 29 29 30 29 28 27 26 25 24 23 21 20 19 18 18 17 16 14 13 14 17 20 21 21 19 17 17 16 16 15 13 10 7 4 4 3 2 3 8 12 17 19 19 15 12 10 9 9 11 13 16 20 24 29 33 38 41 45 47 48 49 50 50 51 52 53 55 57 58 60 60 61 61 60
24 24 24 25 25 26 26 27 28 28 29 29 30 30 30 29 28 27 27 26 25 25 23 21 19 18 17 17 17 16 14 15 17 20 21 21 19 17 16 15 14 13 10 7 3 3 4 4 3 4 9 13 17 18 16 12 10 8 7 7 9 11 13 16 20 24 28 32 36 40 43 45 47 48 49 50 51 53 54 56 58 60 61 62 62 61
25 25 26 27 27 28 29 29 30 30 30 30 30 30 29 29 28 28 27 27 26 26 24 22 20 18 17 17 17 16 16 17 19 21 22 20 18 16 14 13 12 10 8 6 3 3 4 3 2 3 8 13 16 15 12 10 8 7 6 6 7 9 11 14 16 19 23 26 30 33 37 39 42 44 46 48 49 51 53 55 57 59 60 61 62 62
27 28 29 29 30 31 31 31 32 32 31 31 31 30 29 29 28 27 27 27 27 26 25 23 21 20 18 18 18 18 18 18 20 21 21 19 16 13 11 10 9 8 7 6 4 3 3 2 0 3 7 12 14 13 10 8 7 5 4 5 7 9 11 12 14 16 19 21 24 26 29 32 34 37 40 42 45 47 49 52 54 56 57 58 59 60
29 30 31 32 32 33 33 33 33 33 33 32 31 30 29 28 28 27 27 27 27 26 25 23 22 21 20 20 20 19 19 19 19 20 20 18 14 11 8 6 6 6 6 5 5 4 3 1 1 4 8 12 13 11 9 7 5 3 3 5 8 10 11 12 14 15 17 18 20 21 23 25 27 29 32 34 37 40 43 45 48 50 52 53 55 56
31 32 33 34 34 35 35 35 35 34 34 33 31 30 29 28 27 27 27 27 27 26 24 23 21 21 21 21 21 21 19 18 18 18 17 15 12 8 5 5 4 4 4 4 5 6 5 3 1 5 9 12 12 10 9 7 4 1 3 7 10 11 12 13 13 15 16 17 18 20 21 22 23 25 27 29 31 33 35 38 40 42 44 46 48 50
33 34 35 35 36 36 36 36 36 35 34 33 31 30 28 27 27 26 26 26 26 24 23 21 20 20 21 21 21 21 19 18 17 16 15 12 9 6 5 5 5 4 3 3 4 6 7 5 2 4 9 11 10 10 9 6 3 1 4 8 11 12 13 13 14 15 17 18 19 19 21 22 23 25 26 27 29 30 30 31 33 35 37 39 41 43
35 35 36 36 36 36 36 36 35 34 33 31 30 28 27 26 25 25 25 24 24 23 21 19 19 19 20 20 20 20 19 18 16 14 12 10 8 6 5 5 6 7 6 4 2 5 7 7 4 3 8 10 9 9 9 6 2 2 6 10 12 13 13 14 15 16 17 18 18 20 21 23 25 26 27 28 29 29 28 29 31 32 33 34 35 37
35 35 35 35 34 34 34 33 32 31 29 28 27 26 25 24 23 23 23 22 21 20 19 18 17 17 18 18 19 18 18 16 14 12 10 8 8 7 7 6 7 8 9 9 7 4 4 6 5 3 6 7 7 8 8 5 2 3 8 12 14 14 14 15 16 18 18 18 18 20 22 24 25 26 27 27 28 29 29 29 30 31 32 32 33 34
33 33 32 32 31 31 30 29 28 26 25 24 23 22 22 20 20 20 20 20 19 18 17 16 16 16 17 17 17 17 16 14 13 11 9 8 8 8 8 8 7 8 9 10 10 9 6 5 6 5 4 5 5 7 7 4 2 5 10 13 15 15 15 16 18 19 19 18 19 21 23 24 25 26 26 27 27 28 29 30 30 31 31 32 32 33
31 30 29 28 28 27 26 25 24 22 21 20 20 19 18 17 16 17 17 17 17 17 16 16 16 16 17 16 16 15 14 13 11 10 9 9 9 9 9 9 8 8 8 8 9 9 8 7 7 7 5 2 3 6 6 3 4 7 11 14 15 16 16 17 19 19 19 18 19 21 23 24 25 26 26 26 27 28 29 30 30 30 31 32 32 33
28 27 26 26 25 24 23 22 21 20 19 18 17 16 15 14 14 14 14 15 15 15 15 15 15 15 16 16 15 14 13 11 10 10 9 10 10 10 9 8 7 6 5 5 5 6 5 5 7 8 6 1 3 5 5 4 6 9 13 15 16 17 17 18 19 19 18 18 19 21 23 24 25 26 26 27 27 28 29 30 30 31 32 33 34 35
26 25 24 23 23 22 21 20 19 18 17 16 15 15 13 13 12 12 12 13 13 13 13 14 14 14 14 14 14 13 12 11 10 10 10 10 10 9 8 7 7 6 5 5 5 5 3 1 4 5 3 2 5 6 6 6 9 11 14 15 17 17 18 19 20 20 19 19 21 22 24 25 26 26 27 27 28 29 30 31 31 32 33 34 35 35
24 23 23 22 21 20 20 19 18 17 16 15 15 14 13 13 12 12 12 12 12 12 13 13 13 13 14 14 14 13 12 11 11 10 10 10 10 9 9 8 8 8 7 7 7 6 5 3 1 1 2 5 7 7 7 9 11 13 15 16 17 18 19 20 21 21 21 22 23 24 25 25 26 27 28 29 29 30 31 32 33 33 34 34 35 35
23 22 21 21 20 20 19 19 18 17 16 15 14 14 13 13 13 12 12 12 12 12 13 13 13 14 14 14 14 13 12 12 11 10 10 10 10 10 10 10 9 9 9 8 7 6 6 5 4 4 5 7 8 9 9 11 13 15 17 18 18 19 20 22 23 23 24 24 25 26 26 27 28 28 29 30 31 32 32 33 34 34 35 35 35 35
22 21 21 20 20 20 19 18 17 16 16 15 14 14 13 13 13 13 13 12 12 13 13 13 13 13 13 13 13 12 12 12 11 11 10 10 11 11 11 11 11 11 10 9 8 7 6 5 5 6 8 10 10 11 11 13 14 16 18 19 20 20 22 23 24 25 26 26 27 27 28 28 29 30 31 32 32 33 33 34 34 35 35 35 35 36
21 21 20 20 20 19 18 18 17 16 15 15 14 13 13 13 13 13 12 12 13 13 13 13 13 13 12 11 11 11 11 11 11 10 10 10 10 10 11 11 12 12 12 10 9 7 6 5 6 7 10 11 11 12 13 14 16 18 19 20 21 22 23 24 25 26 26 27 28 28 29 29 30 31 32 33 34 34 34 34 35 35 35 35 36 36
21 20 20 19 19 18 17 17 16 15 15 14 13 13 13 12 12 12 12 12 13 13 13 13 12 12 12 11 11 11 11 11 11 10 10 9 9 9 9 9 10 11 12 11 10 8 7 7 8 9 11 12 12 13 14 16 17 19 20 21 22 23 24 25 25 26 27 27 28 28 29 29 30 32 33 33 34 34 35 35 35 35 35 35 36 36
20 20 19 18 18 17 16 15 15 14 13 13 13 13 12 12 12 12 12 12 13 13 13 12 12 12 13 13 13 13 13 13 12 12 11 10 9 8 7 7 7 7 9 10 10 10 9 9 10 11 12 13 13 14 15 17 18 19 21 22 23 24 24 25 26 26 27 27 28 28 28 28 29 30 31 32 33 34 34 34 35 35 35 35 35 36
20 20 19 18 17 16 15 14 13 12 12 12 12 12 12 12 12 12 12 13 13 13 13 12 12 13 13 14 14 15 14 14 13 13 12 10 9 8 7 6 5 4 5 7 10 11 12 11 11 12 13 14 15 16 16 17 19 20 21 22 23 24 24 25 26 26 27 27 27 27 27 27 27 28 29 30 31 32 32 33 33 34 34 34 35 35
20 20 19 18 17 16 15 14 13 12 12 12 12 12 12 12 12 13 13 13 14 13 13 13 13 13 14 14 15 15 15 15 15 14 13 12 10 8 6 5 4 3 2 4 7 10 12 12 11 12 13 15 16 17 17 18 19 20 21 22 23 24 24 25 25 26 26 26 26 26 26 26 26 26 27 28 29 29 30 31 32 32 33 33 34 34
Wind_Direction
308 308 308 308 307 307 306 306 305 305 304 304 303 302 301 300 298 297 295 294 293 292 291 290 289 288 287 286 286 285 284 283 282 281 280 279 278 277 276 275 274 272 271 270 269 268 267 266 266 265 264 263 263 262 261 260 259 257 255 253 251 249 247 244 241 238 237 236 236 236 237 237 236 235 233 232 231 230 230 231 231 232 232 233 233 233
309 309 309 308 308 307 307 306 306 306 305 304 304 302 301 300 298 297 295 294 293 292 291 291 290 289 288 287 286 285 284 284 283 281 280 279 278 277 276 275 274 273 272 271 270 269 268 267 266 265 264 263 263 262 261 260 259 257 255 253 251 249 247 244 241 238 236 235 235 235 236 236 236 235 234 233 231 230 230 230 231 232 233 233 234 234
310 309 309 309 309 308 308 307 307 306 306 305 304 303 302 300 299 297 296 295 294 293 292 291 291 290 289 288 287 286 285 284 283 282 281 280 279 278 277 276 275 274 273 272 270 269 268 267 266 265 264 264 263 262 261 260 259 257 255 253 251 248 246 243 240 238 236 234 234 234 235 235 236 236 235 234 232 231 230 230 231 231 232 233 234 235
310 310 310 309 309 309 308 308 308 307 306 305 304 303 302 300 299 298 296 295 294 293 292 292 291 291 290 289 288 287 286 286 285 284 283 281 280 279 278 277 276 275 274 272 271 270 269 268 267 266 266 265 264 263 262 261 259 257 255 253 250 247 244 242 239 237 234 233 233 233 234 235 235 236 235 235 233 232 231 231 231 231 232 232 234 235
310 310 310 310 309 309 309 308 308 307 307 306 304 303 302 301 299 298 297 296 295 294 293 292 292 291 291 290 289 288 287 286 285 285 283 282 281 280 279 278 277 276 275 274 273 272 271 270 269 268 268 267 266 264 263 261 259 257 254 251 248 245 242 239 237 235 233 232 232 232 233 234 234 235 235 235 234 233 232 231 231 231 232 232 233 234
311 311 310 310 310 309 309 309 308 308 307 306 305 304 303 301 300 299 297 296 295 295 294 293 293 292 291 291 290 289 288 287 286 285 284 283 282 281 280 279 278 277 276 275 274 274 273 272 271 270 270 268 267 266 264 262 259 256 253 250 247 244 240 237 235 233 231 230 230 230 231 232 233 234 235 235 235 234 233 232 232 232 232 232 233 234
311 311 310 310 310 309 309 309 309 308 308 307 306 305 303 302 301 299 298 297 297 296 295 295 294 293 293 292 291 289 288 287 286 285 284 283 282 281 280 279 278 278 277 276 276 275 274 274 273 272 271 270 268 267 264 262 259 256 252 249 246 242 239 236 234 231 230 229 228 229 230 231 232 233 234 235 235 235 234 233 232 232 232 233 233 234
311 311 311 311 310 310 310 310 310 309 309 308 307 306 304 303 301 300 299 299 298 298 297 297 296 295 294 293 292 291 289 288 286 285 284 283 282 281 280 280 279 278 278 277 277 276 276 275 274 273 272 271 269 267 265 262 259 256 252 248 245 241 238 235 233 230 228 227 227 227 228 230 231 232 233 234 234 234 234 233 232 232 232 233 234 234
312 311 311 311 311 311 311 311 311 310 309 308 307 306 305 304 302 301 300 300 300 300 299 298 298 297 296 295 294 292 291 289 288 287 286 284 283 282 281 280 280 279 278 278 277 277 276 276 275 274 273 272 270 268 265 262 259 256 252 248 244 240 237 234 231 229 227 226 225 226 227 228 229 230 231 232 233 233 233 233 232 232 232 232 233 234
312 312 312 312 312 311 311 312 311 311 310 309 307 306 306 304 303 302 301 301 301 301 300 300 299 299 298 297 295 294 292 291 289 288 287 286 285 284 283 282 281 280 279 278 278 277 277 277 276 275 274 272 270 268 265 262 259 256 252 247 243 239 235 232 230 228 226 224 224 224 226 227 228 229 230 231 232 232 232 232 232 232 232 232 233 233
312 312 312 312 312 312 312 312 312 311 310 309 308 307 306 305 304 304 303 303 303 303 302 301 301 301 300 299 297 295 293 292 290 289 288 287 286 285 284 283 282 281 280 279 279 278 277 277 276 275 274 273 271 268 265 262 259 256 252 248 243 238 235 231 229 226 224 223 223 223 224 226 227 229 230 231 231 232 232 232 232 231 231 231 232 232
312 312 312 313 313 313 313 312 311 311 310 309 308 307 306 306 305 305 305 305 305 305 304 303 302 302 302 301 299 296 294 292 290 289 288 287 286 285 284 283 283 282 281 280 280 279 278 277 276 275 274 272 270 267 265 262 259 256 252 248 243 238 234 231 228 225 223 222 222 222 223 225 226 227 229 230 231 231 231 231 231 231 231 231 231 232
313 313 313 313 313 313 313 312 312 311 310 310 308 308 307 306 306 306 306 306 307 307 306 305 304 303 302 301 299 297 294 292 290 289 289 288 287 286 285 284 283 283 282 281 280 279 278 277 276 274 273 271 268 266 263 261 258 255 252 247 243 238 234 230 227 224 222 221 221 222 223 224 225 226 228 229 229 230 230 230 230 230 230 230 230 231
313 313 313 313 313 313 313 312 312 311 311 310 309 308 307 307 307 307 307 307 308 308 307 306 305 304 302 301 298 296 293 291 290 289 289 288 288 287 285 285 284 284 283 282 281 279 278 277 276 274 272 270 267 265 262 259 257 254 251 247 243 238 234 230 226 223 222 221 220 221 222 223 224 226 227 228 228 229 229 229 229 229 229 229 229 230
313 313 312 313 313 313 313 312 312 311 311 310 309 308 308 308 308 308 308 309 309 309 308 306 305 303 302 300 298 296 293 291 290 290 290 289 289 288 287 286 285 285 284 283 282 280 279 277 276 274 273 270 267 264 261 258 255 252 250 246 242 238 234 229 226 223 221 220 220 220 221 222 224 225 226 227 228 228 229 229 228 228 228 228 228 229
312 312 312 312 312 312 312 312 311 311 310 309 308 308 308 308 309 309 310 310 310 310 308 307 305 303 301 299 298 296 293 292 291 291 291 291 290 288 287 286 286 286 286 284 283 281 280 278 277 275 273 271 268 265 261 258 254 251 248 245 242 238 233 229 225 222 220 219 219 219 220 221 223 224 225 226 227 228 228 228 228 227 227 226 226 227
313 313 312 312 312 312 312 311 311 310 310 309 308 308 309 309 310 311 311 311 311 310 309 307 305 303 301 298 296 294 292 291 291 292 293 292 291 289 286 286 287 287 287 285 284 283 281 280 278 276 274 272 269 266 262 259 255 251 248 244 241 237 232 228 224 222 220 219 218 219 219 220 222 223 225 226 227 227 227 227 227 226 226 225 225 224
313 313 313 313 312 312 312 311 311 310 309 309 309 309 310 311 311 312 312 313 312 311 309 307 305 304 302 299 296 293 291 290 291 293 294 294 291 288 286 286 287 288 287 286 285 284 284 283 281 280 278 275 272 269 265 261 256 252 248 244 240 236 232 228 224 221 219 218 218 218 219 220 221 223 224 225 226 226 226 226 226 225 225 224 223 223
314 314 313 313 312 312 312 311 311 310 310 309 310 310 311 312 313 313 314 313 313 311 309 307 306 305 303 301 298 295 291 291 292 294 295 294 290 286 285 285 287 287 286 286 286 287 287 288 288 288 286 283 280 276 271 266 260 254 249 244 240 236 231 227 224 221 219 218 218 218 219 220 221 223 224 225 226 226 226 225 225 225 224 223 222 222
314 314 313 313 312 312 312 312 311 311 310 310 311 312 312 313 314 314 315 314 313 312 311 310 309 308 306 304 301 297 293 293 294 296 296 294 290 285 284 285 285 285 285 285 286 288 289 290 292 294 294 294 293 289 284 277 269 260 252 246 240 235 231 227 224 221 219 218 218 218 219 220 221 223 224 225 225 225 225 224 224 224 223 222 222 221
313 314 313 313 312 312 312 312 311 311 311 311 311 312 313 314 315 316 316 316 315 316 316 317 316 314 310 307 303 299 296 295 295 296 297 294 290 285 284 285 285 285 283 282 280 279 278 279 283 288 294 299 302 300 296 288 279 269 258 249 241 236 231 227 224 221 219 218 218 218 219 220 221 222 223 224 224 224 223 223 223 222 222 221 220 219
313 313 313 312 312 311 311 311 311 311 311 311 312 313 314 316 317 318 319 319 321 324 327 328 326 322 317 312 308 303 298 297 297 298 298 296 290 284 283 284 284 282 279 276 272 270 268 269 272 277 284 293 298 298 295 290 283 274 264 253 243 236 231 227 223 221 219 218 218 218 219 220 221 222 223 223 223 223 222 222 222 221 221 220 219 217
313 313 313 312 312 311 311 311 311 311 312 312 313 314 316 318 320 322 323 326 330 335 338 338 335 330 325 320 315 308 302 299 299 300 300 299 291 283 280 279 278 275 272 270 269 267 264 263 261 261 262 269 279 285 286 285 281 275 267 256 246 237 231 227 223 221 219 218 218 218 219 220 221 221 222 223 223 223 222 222 221 221 220 219 217 215
313 313 313 312 312 311 311 311 312 312 313 314 314 316 318 321 323 326 328 331 336 340 344 346 346 344 339 333 326 318 309 304 302 302 302 301 296 286 279 277 274 271 270 270 269 267 263 259 255 250 245 246 257 270 277 278 277 274 268 258 248 238 231 227 223 221 219 218 218 219 219 220 221 222 222 223 223 222 222 221 221 219 218 217 215 212
313 313 312 312 312 312 312 313 313 314 315 316 317 319 322 325 327 329 331 333 337 342 348 354 356 355 350 344 338 330 319 310 306 305 304 305 302 293 284 279 277 275 272 272 270 268 264 260 256 252 247 244 250 263 272 274 274 272 268 260 249 239 232 227 224 221 220 219 219 219 220 221 222 222 223 223 223 222 222 221 220 218 217 215 213 211
313 312 312 312 312 313 314 315 316 317 318 319 321 323 326 329 330 330 330 332 335 340 348 355 358 357 354 348 342 335 326 318 312 309 308 309 308 302 292 285 282 280 277 273 270 267 265 263 260 258 256 254 259 268 273 275 274 272 268 261 251 241 233 228 225 222 221 220 220 220 221 221 222 222 222 222 222 222 221 220 219 218 216 214 213 211
313 313 313 313 314 315 317 318 320 321 322 324 325 327 329 330 329 329 329 329 331 335 342 346 350 352 351 346 340 332 325 319 314 311 310 310 310 306 298 289 285 282 279 274 268 265 263 262 263 263 263 266 271 274 275 274 273 272 269 262 252 242 234 229 225 223 221 221 220 221 221 221 222 222 222 222 222 221 220 220 219 218 216 215 213 212
314 314 315 316 317 319 321 323 325 326 328 329 329 330 330 330 329 329 329 328 328 331 336 338 340 342 342 341 336 329 321 315 311 309 308 307 308 307 301 291 285 282 278 274 267 262 260 260 260 263 269 275 278 277 276 275 275 274 271 263 252 242 234 229 226 224 222 221 221 221 221 222 222 222 222 221 221 220 220 219 218 217 217 215 214 213
316 317 319 320 323 325 327 329 330 331 331 331 331 331 330 330 330 330 330 329 329 331 333 335 335 335 335 334 331 326 319 311 306 304 303 302 303 304 299 290 284 280 278 274 268 259 254 253 254 264 280 288 288 286 283 282 282 281 275 264 252 241 234 229 226 224 223 223 222 222 222 222 222 222 222 221 221 220 219 219 218 218 217 216 215 215
321 323 324 326 328 330 332 333 333 332 332 330 329 328 329 329 330 331 332 332 333 334 335 335 334 333 332 330 328 322 315 307 302 300 298 298 299 298 294 288 283 280 278 276 268 254 239 232 239 289 302 299 295 291 289 290 291 289 279 264 249 239 233 229 226 225 224 224 224 223 223 224 223 223 222 222 221 220 220 219 219 218 218 217 216 216
327 328 330 331 332 332 332 332 331 330 328 327 326 326 326 327 329 331 333 334 335 336 337 337 336 336 334 332 329 324 316 307 302 300 298 298 299 299 294 289 285 281 278 274 262 229 194 179 205 289 304 300 293 289 289 294 298 294 280 261 244 234 228 226 225 224 224 224 225 225 225 225 225 224 224 223 222 221 221 220 220 219 219 218 218 218
331 332 331 331 331 330 330 328 327 326 325 324 323 323 324 325 327 329 331 333 333 334 335 336 338 339 339 337 335 332 324 316 310 307 305 306 307 306 301 296 290 283 275 261 220 150 145 159 205 273 298 297 291 288 291 300 303 297 277 254 237 225 220 219 219 220 222 223 224 224 225 226 226 226 225 225 224 223 222 222 221 221 221 220 220 220
331 331 330 329 328 327 326 325 324 323 322 322 322 322 322 324 326 327 329 330 330 330 330 332 334 337 339 340 339 336 330 323 317 314 313 314 314 312 306 301 294 282 265 237 189 136 120 140 194 276 299 295 290 290 299 309 310 296 270 243 223 211 208 207 209 212 215 217 220 221 223 224 225 226 226 226 226 225 225 224 224 223 223 223 223 223
329 328 326 325 324 324 323 322 321 321 321 321 321 321 322 323 324 326 327 327 327 326 326 326 328 330 332 335 336 335 331 324 319 315 315 315 315 314 310 304 295 279 255 224 191 154 128 125 269 302 303 294 291 297 314 322 316 295 255 219 200 193 192 194 197 201 205 208 211 214 216 219 220 222 223 224 225 225 226 225 225 225 225 225 225 225
325 324 322 321 320 319 318 318 317 318 318 318 319 319 320 321 323 324 325 325 325 324 324 323 324 325 327 329 330 331 330 324 317 313 312 312 313 313 315 311 301 279 253 221 186 158 151 148 309 309 304 294 296 310 331 333 323 293 220 190 180 177 177 179 184 189 193 196 199 201 204 207 210 213 215 217 219 221 223 224 224 224 225 225 225 225
321 320 318 317 316 315 314 314 314 314 314 315 315 316 317 319 321 322 323 323 323 323 322 323 323 324 325 327 329 330 330 325 317 311 310 311 312 316 327 332 322 297 264 224 184 161 154 161 267 304 301 296 305 326 346 343 330 278 187 175 171 168 165 168 174 180 184 185 187 188 191 193 196 199 202 205 209 211 214 216 218 219 220 221 221 221
318 316 315 314 313 312 312 312 311 312 312 312 313 313 314 316 318 320 321 322 322 322 322 323 323 324 325 327 329 331 330 325 318 313 313 316 320 328 345 354 354 342 315 247 197 171 160 163 201 292 299 299 314 339 355 352 343 202 169 166 163 158 156 161 169 174 176 176 177 179 181 184 187 190 193 195 198 201 204 207 208 209 211 212 213 215
316 315 314 313 313 312 311 311 311 311 311 312 312 312 313 314 316 318 320 321 321 321 322 323 324 324 324 326 328 329 328 324 320 318 320 326 335 345 355 356 357 357 353 331 262 191 170 167 183 277 296 301 323 352 3 0 1 152 159 160 156 152 152 159 165 168 169 168 170 174 179 182 185 187 188 190 192 194 196 197 199 200 201 203 204 206
317 317 316 315 315 314 314 314 314 314 315 315 315 315 315 316 318 320 321 321 322 322 323 323 324 324 324 325 326 327 326 325 324 324 327 334 343 351 353 347 342 340 339 333 319 284 210 181 182 236 288 303 332 1 11 10 31 150 156 155 152 149 152 158 162 163 161 162 168 176 180 183 184 185 185 186 188 190 191 191 192 193 194 195 196 197
321 320 320 320 319 320 320 320 321 323 324 324 323 323 323 323 323 323 322 322 322 323 324 324 324 324 325 327 329 330 331 332 332 332 333 335 338 341 342 336 328 321 315 310 305 296 274 224 200 210 258 295 341 11 19 22 85 148 153 151 147 146 152 157 159 158 156 161 171 179 179 180 180 181 181 182 183 185 186 186 186 187 187 188 190 192
327 327 327 327 328 328 330 332 334 336 337 336 336 335 335 333 330 327 325 325 326 328 328 328 328 329 332 335 338 341 341 341 340 339 337 334 333 332 330 326 318 308 297 288 286 287 283 253 227 220 232 268 10 28 34 52 119 145 150 148 147 147 151 155 154 153 155 164 173 176 175 175 175 175 175 176 177 179 180 181 181 181 181 183 186 187
334 335 335 337 338 340 343 346 349 350 351 350 350 349 347 343 338 333 331 330 332 334 335 335 335 335 337 342 347 351 351 349 346 341 337 334 332 330 327 325 321 315 304 291 290 296 295 262 238 229 224 203 50 47 58 93 131 144 148 148 148 149 151 152 152 151 155 164 170 171 169 169 168 168 168 169 170 171 173 174 174 174 175 177 180 181
342 343 345 347 350 353 357 359 1 2 2 2 0 358 355 351 347 343 341 340 341 342 342 343 343 343 345 348 353 356 357 354 350 344 337 333 332 333 334 338 343 347 351 352 353 355 356 294 235 228 212 116 79 72 85 113 134 143 147 147 147 148 149 151 151 152 157 162 164 164 163 163 162 162 162 162 163 164 165 166 167 168 170 172 174 176
350 351 354 357 1 4 6 8 9 9 10 9 7 4 1 358 357 356 355 354 354 354 354 355 356 357 358 358 358 360 0 359 355 350 346 343 344 347 351 356 3 10 15 18 18 21 29 39 70 166 112 95 89 91 104 122 136 143 146 146 147 148 151 153 153 154 157 159 158 157 157 158 158 157 157 157 158 159 160 160 162 163 165 167 169 171
357 359 2 5 8 10 11 13 13 13 13 12 11 8 7 6 7 8 8 8 8 9 9 10 10 9 8 5 3 2 2 2 2 2 1 3 7 9 12 14 17 22 26 29 30 30 33 37 50 72 88 94 98 104 114 127 137 143 146 147 148 150 154 154 154 155 156 156 155 154 154 155 155 155 154 155 155 156 157 158 160 161 163 165 167 169
4 6 9 11 12 13 14 14 14 14 14 13 13 12 12 13 15 17 19 20 20 21 21 23 21 18 13 9 5 3 3 5 8 11 14 18 20 23 25 27 29 32 35 37 40 41 40 45 58 75 88 97 105 114 124 132 139 144 148 149 150 152 154 155 154 154 154 154 154 154 154 154 155 155 155 155 155 156 157 159 160 162 164 166 168 170
11 12 13 14 15 14 14 13 13 13 14 14 15 16 17 19 22 24 26 28 29 28 28 26 23 18 13 9 5 2 2 4 7 9 12 16 20 24 28 31 35 38 41 43 45 48 54 68 82 90 95 101 110 121 130 137 142 146 149 150 152 153 155 156 155 154 153 153 154 154 155 156 157 157 157 157 158 158 160 161 163 165 167 168 170 172
16 17 17 17 16 15 14 13 13 13 14 15 17 19 22 25 27 29 31 32 32 30 26 21 15 10 6 2 360 358 356 355 354 354 355 357 2 9 16 25 32 37 41 45 49 54 65 83 98 104 106 108 116 126 134 139 143 147 150 151 152 154 155 156 155 155 154 154 155 156 157 159 160 160 161 161 161 162 163 165 166 167 169 171 172 174
19 19 19 18 18 17 16 15 14 14 14 15 17 19 21 25 27 29 30 31 30 26 21 14 8 3 0 358 357 355 354 352 350 347 344 342 340 340 346 357 13 29 40 47 52 59 70 86 101 111 115 117 123 131 137 141 144 147 150 151 152 154 156 156 156 155 155 156 156 157 159 160 161 162 163 163 164 165 166 167 168 169 171 173 174 176
20 20 20 20 19 19 19 18 17 16 15 16 16 16 17 19 21 23 25 24 23 20 16 11 7 5 4 4 4 5 5 5 4 2 357 351 344 336 328 325 333 358 33 50 58 63 70 82 98 112 121 125 129 134 138 142 145 147 150 151 152 154 156 157 157 156 156 156 157 157 159 160 161 162 163 164 165 165 166 167 169 170 172 173 175 177
20 20 20 20 21 21 21 22 21 20 19 19 17 16 15 15 16 17 19 19 18 17 15 14 13 13 15 16 19 20 22 23 23 22 20 16 10 2 348 331 316 316 8 60 68 70 74 81 95 111 123 129 133 136 139 142 145 147 150 151 153 154 156 157 157 157 156 156 156 157 157 158 159 160 161 163 164 164 165 167 168 170 171 173 175 177
Height
5392 5389 5385 5382 5379 5376 5373 5369 5367 5364 5360 5356 5353 5350 5348 5344 5341 5337 5334 5331 5328 5325 5323 5321 5319 5319 5317 5316 5314 5313 5311 5310 5309 5308 5307 5306 5304 5304 5303 5302 5302 5302 5302 5301 5301 5301 5301 5301 5302 5302 5302 5303 5303 5304 5304 5305 5307 5308 5310 5312 5314 5315 5318 5320 5323 5327 5330 5333 5336 5339 5342 5345 5349 5353 5357 5361 5366 5370 5374 5379 5383 5386 5388 5390 5393 5396
5384 5381 5377 5374 5371 5369 5365 5362 5359 5356 5353 5349 5345 5342 5339 5337 5334 5330 5328 5325 5322 5319 5316 5314 5313 5312 5311 5309 5308 5307 5305 5304 5302 5301 5300 5299 5298 5296 5295 5294 5294 5294 5294 5294 5294 5293 5293 5294 5294 5294 5294 5295 5295 5296 5297 5298 5299 5300 5302 5303 5305 5307 5309 5312 5315 5318 5322 5325 5328 5331 5334 5337 5341 5344 5349 5353 5357 5362 5367 5371 5376 5379 5382 5384 5387 5389
5377 5374 5370 5366 5363 5360 5357 5354 5351 5348 5345 5341 5338 5335 5332 5329 5326 5324 5321 5318 5315 5313 5310 5308 5307 5305 5304 5303 5302 5300 5299 5297 5295 5294 5293 5292 5290 5289 5288 5287 5286 5286 5286 5285 5285 5285 5285 5285 5286 5286 5287 5287 5288 5288 5289 5290 5291 5292 5293 5295 5297 5299 5301 5303 5306 5309 5313 5317 5320 5324 5327 5330 5334 5337 5341 5345 5349 5354 5359 5364 5368 5372 5375 5378 5380 5383
5369 5367 5363 5359 5356 5353 5350 5346 5343 5340 5337 5334 5331 5328 5325 5322 5319 5317 5314 5312 5309 5307 5305 5303 5301 5299 5298 5296 5295 5294 5292 5290 5289 5287 5286 5285 5284 5282 5281 5280 5279 5279 5278 5278 5278 5277 5277 5278 5278 5279 5279 5279 5280 5280 5281 5282 5283 5284 5285 5287 5289 5290 5292 5295 5298 5301 5305 5309 5312 5316 5319 5323 5326 5330 5334 5338 5342 5347 5352 5356 5360 5364 5368 5371 5374 5377
5362 5359 5356 5352 5349 5345 5342 5339 5336 5333 5329 5327 5324 5322 5319 5316 5313 5310 5308 5306 5304 5301 5299 5297 5295 5294 5292 5290 5289 5287 5286 5284 5282 5280 5279 5278 5277 5275 5274 5273 5272 5271 5271 5270 5270 5270 5269 5270 5270 5270 5271 5272 5272 5273 5273 5274 5274 5275 5276 5278 5279 5280 5282 5285 5288 5292 5296 5300 5304 5309 5313 5316 5319 5323 5327 5331 5335 5340 5344 5349 5352 5356 5360 5364 5368 5371
5355 5353 5349 5345 5341 5338 5335 5332 5329 5326 5322 5319 5317 5315 5312 5309 5307 5304 5301 5300 5298 5296 5294 5292 5290 5288 5286 5284 5283 5281 5279 5278 5276 5274 5273 5271 5270 5269 5268 5267 5265 5264 5264 5263 5263 5262 5262 5262 5262 5263 5263 5264 5264 5264 5265 5265 5265 5265 5266 5267 5269 5270 5272 5275 5279 5283 5287 5291 5296 5300 5305 5309 5313 5317 5321 5325 5329 5333 5337 5341 5345 5349 5353 5357 5361 5365
5348 5346 5343 5339 5335 5331 5329 5326 5323 5319 5315 5312 5309 5308 5306 5303 5301 5299 5296 5294 5292 5290 5288 5286 5285 5283 5281 5279 5277 5275 5273 5271 5270 5268 5267 5265 5264 5263 5262 5260 5259 5257 5257 5256 5255 5254 5254 5254 5255 5255 5256 5256 5256 5257 5256 5256 5256 5257 5257 5258 5259 5261 5264 5267 5270 5274 5279 5283 5288 5293 5298 5302 5306 5310 5314 5318 5322 5325 5329 5334 5338 5343 5347 5351 5355 5359
5341 5338 5336 5333 5328 5324 5321 5319 5317 5314 5309 5305 5302 5300 5298 5296 5295 5293 5291 5289 5286 5284 5282 5280 5279 5278 5276 5274 5271 5269 5267 5265 5264 5262 5261 5259 5258 5257 5255 5254 5253 5252 5250 5249 5248 5248 5248 5247 5248 5248 5248 5249 5249 5249 5248 5248 5248 5248 5248 5249 5251 5254 5256 5259 5263 5267 5272 5276 5281 5286 5291 5295 5300 5304 5308 5311 5315 5319 5323 5327 5332 5336 5340 5345 5349 5353
5335 5331 5328 5325 5322 5318 5314 5311 5310 5308 5304 5300 5297 5294 5292 5290 5288 5286 5285 5284 5282 5280 5277 5274 5273 5272 5271 5269 5266 5263 5260 5259 5257 5256 5254 5253 5252 5250 5249 5248 5246 5245 5244 5243 5242 5241 5241 5241 5241 5241 5241 5241 5241 5241 5240 5240 5240 5240 5240 5242 5244 5246 5249 5251 5255 5259 5264 5269 5274 5280 5285 5289 5293 5297 5300 5304 5308 5312 5317 5321 5326 5330 5334 5339 5343 5347
5329 5325 5321 5317 5315 5312 5308 5304 5303 5301 5299 5296 5293 5290 5287 5284 5280 5279 5278 5278 5278 5276 5273 5270 5268 5266 5264 5263 5261 5258 5255 5253 5252 5250 5249 5247 5245 5244 5242 5241 5240 5239 5239 5238 5237 5236 5235 5234 5234 5234 5234 5234 5234 5234 5234 5233 5233 5232 5233 5234 5236 5239 5241 5244 5248 5252 5257 5263 5268 5274 5278 5283 5287 5290 5294 5298 5302 5307 5312 5316 5320 5324 5329 5333 5337 5341
5322 5318 5314 5311 5308 5306 5303 5300 5297 5295 5294 5291 5288 5284 5282 5279 5275 5272 5271 5271 5272 5271 5269 5266 5264 5261 5259 5257 5254 5252 5249 5247 5246 5245 5244 5242 5240 5238 5236 5235 5234 5233 5233 5232 5231 5230 5229 5229 5228 5228 5228 5228 5228 5227 5227 5226 5226 5226 5227 5229 5230 5233 5235 5239 5243 5247 5252 5257 5262 5268 5272 5277 5281 5285 5289 5294 5298 5302 5307 5311 5315 5319 5323 5327 5331 5335
5315 5311 5308 5305 5302 5300 5298 5295 5293 5291 5288 5285 5281 5278 5276 5275 5272 5269 5265 5265 5265 5265 5263 5262 5260 5258 5255 5251 5248 5246 5244 5242 5240 5240 5239 5237 5235 5233 5231 5229 5228 5228 5227 5226 5226 5225 5224 5223 5222 5222 5222 5222 5221 5221 5221 5220 5221 5221 5222 5223 5225 5227 5230 5233 5237 5242 5247 5252 5257 5262 5267 5272 5276 5280 5285 5289 5294 5298 5302 5306 5310 5314 5319 5323 5326 5330
5309 5305 5302 5299 5297 5294 5293 5290 5287 5284 5282 5279 5276 5273 5270 5269 5268 5265 5262 5260 5259 5259 5257 5255 5254 5253 5251 5248 5244 5240 5238 5236 5235 5235 5234 5233 5231 5228 5226 5224 5224 5223 5222 5221 5221 5220 5219 5218 5217 5217 5216 5216 5216 5215 5215 5215 5215 5216 5217 5218 5220 5222 5225 5228 5232 5237 5242 5247 5252 5257 5262 5266 5271 5275 5279 5284 5289 5293 5297 5301 5306 5310 5314 5318 5322 5326
5303 5300 5297 5294 5292 5290 5288 5284 5281 5279 5277 5274 5271 5268 5265 5264 5262 5260 5258 5256 5255 5254 5252 5250 5249 5248 5247 5244 5240 5236 5232 5230 5229 5230 5230 5229 5226 5223 5221 5219 5219 5219 5218 5217 5216 5215 5214 5213 5212 5212 5211 5211 5211 5210 5210 5210 5211 5211 5212 5214 5215 5218 5220 5224 5228 5233 5237 5242 5247 5252 5257 5261 5264 5269 5273 5278 5283 5288 5292 5297 5302 5306 5310 5314 5318 5322
5299 5296 5293 5290 5288 5285 5283 5279 5276 5274 5272 5269 5267 5264 5261 5259 5258 5256 5254 5252 5250 5249 5247 5245 5244 5243 5242 5239 5235 5230 5226 5224 5224 5225 5225 5225 5222 5219 5216 5215 5215 5215 5214 5213 5212 5211 5210 5209 5208 5207 5207 5207 5206 5206 5206 5206 5206 5207 5208 5209 5211 5214 5216 5219 5223 5228 5232 5236 5241 5246 5250 5254 5259 5264 5269 5274 5279 5284 5289 5293 5297 5302 5306 5310 5314 5317
5295 5292 5289 5286 5283 5281 5279 5276 5272 5269 5267 5265 5262 5260 5257 5255 5254 5252 5250 5248 5245 5244 5243 5241 5239 5238 5237 5235 5231 5226 5222 5219 5220 5221 5221 5221 5219 5216 5213 5212 5212 5212 5211 5210 5209 5207 5206 5205 5205 5204 5204 5203 5203 5202 5202 5202 5203 5204 5204 5206 5208 5209 5212 5216 5219 5222 5226 5230 5235 5240 5244 5249 5254 5260 5265 5270 5275 5280 5284 5289 5293 5297 5302 5306 5310 5314
5291 5289 5285 5282 5279 5276 5274 5272 5269 5266 5263 5260 5258 5256 5254 5252 5249 5248 5246 5244 5241 5240 5238 5235 5233 5231 5230 5230 5228 5224 5219 5216 5216 5217 5217 5217 5215 5213 5210 5209 5209 5209 5208 5207 5205 5204 5203 5203 5202 5201 5200 5200 5199 5199 5199 5199 5199 5200 5201 5202 5204 5206 5209 5211 5214 5217 5221 5225 5229 5234 5240 5245 5251 5256 5262 5267 5271 5276 5280 5285 5289 5293 5297 5302 5306 5310
5287 5284 5280 5277 5274 5272 5270 5268 5264 5261 5259 5256 5253 5252 5250 5248 5246 5244 5242 5240 5239 5236 5232 5230 5228 5226 5225 5224 5224 5221 5216 5213 5212 5213 5214 5214 5212 5210 5207 5206 5206 5206 5205 5204 5203 5202 5201 5200 5199 5199 5198 5198 5198 5198 5197 5197 5197 5197 5198 5199 5201 5203 5204 5207 5209 5213 5217 5222 5227 5233 5238 5244 5249 5254 5259 5264 5268 5272 5277 5281 5285 5289 5294 5298 5302 5306
5281 5279 5276 5273 5269 5267 5265 5264 5260 5257 5254 5251 5249 5247 5246 5244 5243 5241 5239 5237 5234 5231 5228 5225 5224 5222 5220 5219 5219 5217 5214 5211 5210 5210 5210 5210 5209 5207 5205 5204 5204 5203 5203 5202 5201 5200 5199 5198 5198 5197 5197 5197 5196 5195 5195 5195 5195 5195 5196 5196 5198 5199 5201 5204 5207 5211 5215 5220 5225 5231 5237 5242 5247 5252 5256 5261 5265 5269 5274 5278 5282 5286 5290 5294 5298 5302
5277 5275 5273 5269 5265 5262 5261 5259 5257 5253 5250 5247 5245 5243 5242 5240 5239 5238 5236 5233 5230 5227 5225 5222 5220 5219 5217 5216 5214 5213 5210 5209 5208 5208 5208 5208 5206 5204 5203 5202 5202 5201 5200 5200 5199 5198 5198 5198 5198 5198 5197 5196 5195 5194 5194 5194 5193 5193 5193 5194 5195 5196 5199 5202 5205 5209 5214 5219 5224 5230 5235 5240 5244 5249 5253 5257 5261 5265 5270 5274 5278 5282 5286 5290 5294 5298
5273 5271 5269 5266 5262 5258 5256 5255 5253 5250 5247 5244 5241 5239 5238 5237 5236 5234 5232 5229 5227 5224 5223 5220 5218 5216 5214 5213 5212 5210 5208 5206 5205 5205 5205 5205 5204 5203 5201 5200 5200 5199 5199 5199 5198 5198 5198 5197 5197 5196 5196 5195 5195 5194 5194 5193 5192 5192 5191 5192 5193 5194 5197 5200 5204 5208 5213 5218 5223 5227 5232 5236 5240 5244 5249 5253 5257 5261 5265 5270 5274 5279 5283 5287 5291 5295
5269 5267 5265 5263 5259 5255 5253 5251 5249 5247 5244 5241 5239 5237 5235 5234 5233 5231 5229 5227 5224 5223 5221 5219 5217 5214 5213 5211 5209 5208 5206 5205 5204 5203 5203 5203 5202 5201 5200 5199 5198 5198 5198 5197 5197 5197 5197 5196 5196 5195 5195 5195 5195 5195 5194 5193 5191 5190 5190 5190 5191 5193 5195 5199 5202 5206 5210 5215 5219 5224 5228 5232 5236 5241 5245 5250 5254 5259 5263 5267 5271 5275 5279 5284 5288 5292
5266 5263 5261 5259 5256 5253 5250 5247 5245 5243 5241 5239 5237 5235 5234 5233 5230 5228 5226 5224 5223 5221 5219 5218 5216 5214 5212 5210 5208 5207 5205 5203 5202 5202 5202 5202 5201 5200 5199 5198 5197 5197 5197 5197 5196 5196 5195 5195 5195 5195 5194 5195 5195 5195 5194 5193 5191 5189 5189 5189 5190 5192 5194 5197 5200 5204 5208 5212 5216 5220 5225 5229 5234 5239 5243 5248 5252 5256 5261 5265 5269 5273 5277 5281 5285 5289
5263 5260 5258 5255 5252 5249 5247 5244 5243 5240 5238 5236 5234 5233 5232 5230 5227 5225 5224 5223 5221 5220 5219 5217 5215 5213 5211 5209 5208 5206 5204 5202 5201 5201 5201 5201 5200 5199 5198 5197 5196 5196 5196 5196 5195 5195 5194 5194 5194 5194 5193 5193 5194 5194 5194 5192 5190 5188 5188 5188 5189 5191 5193 5196 5199 5203 5206 5210 5215 5219 5224 5229 5234 5238 5243 5247 5251 5255 5259 5263 5267 5270 5274 5278 5282 5286
5260 5257 5254 5252 5249 5247 5245 5242 5240 5238 5235 5233 5231 5230 5229 5227 5226 5224 5223 5222 5220 5219 5218 5216 5214 5213 5211 5209 5207 5205 5204 5202 5201 5200 5200 5199 5199 5198 5198 5197 5196 5195 5195 5195 5194 5194 5193 5193 5193 5192 5192 5192 5192 5192 5192 5191 5189 5187 5187 5187 5189 5190 5193 5195 5198 5202 5205 5209 5214 5219 5224 5228 5233 5237 5241 5245 5249 5253 5256 5260 5264 5268 5271 5275 5279 5283
5257 5254 5252 5249 5247 5244 5242 5239 5237 5235 5233 5230 5229 5228 5227 5226 5225 5224 5223 5221 5220 5218 5217 5215 5214 5213 5211 5209 5207 5205 5204 5202 5200 5199 5199 5198 5198 5197 5197 5196 5195 5194 5194 5194 5193 5193 5192 5192 5192 5191 5191 5191 5191 5191 5191 5189 5188 5186 5186 5187 5188 5190 5192 5194 5198 5201 5205 5209 5213 5217 5222 5226 5230 5234 5239 5243 5246 5250 5254 5257 5261 5264 5268 5271 5275 5279
5255 5252 5249 5247 5244 5242 5240 5238 5235 5234 5232 5229 5228 5226 5225 5224 5224 5223 5222 5220 5219 5217 5216 5215 5214 5212 5211 5209 5207 5205 5204 5202 5200 5198 5197 5197 5197 5196 5196 5195 5194 5193 5193 5193 5192 5192 5191 5191 5191 5191 5191 5191 5191 5190 5189 5188 5186 5186 5186 5186 5188 5189 5191 5194 5197 5200 5204 5207 5211 5215 5219 5223 5227 5231 5235 5239 5243 5247 5250 5254 5257 5261 5264 5268 5271 5275
5253 5250 5247 5245 5242 5240 5238 5236 5234 5233 5231 5229 5227 5226 5224 5224 5223 5222 5221 5219 5218 5216 5215 5214 5213 5211 5210 5209 5207 5205 5203 5201 5200 5198 5197 5196 5196 5195 5194 5194 5193 5192 5191 5191 5191 5191 5190 5190 5190 5190 5190 5190 5190 5189 5188 5187 5186 5185 5185 5186 5187 5189 5191 5193 5196 5199 5202 5206 5210 5214 5217 5221 5225 5229 5232 5236 5239 5243 5247 5250 5254 5257 5260 5264 5268 5271
5251 5248 5246 5244 5241 5239 5237 5236 5234 5232 5230 5229 5227 5225 5224 5222 5221 5220 5219 5218 5216 5215 5214 5212 5211 5210 5209 5207 5206 5204 5203 5201 5199 5198 5196 5195 5194 5194 5193 5192 5192 5191 5190 5190 5189 5189 5189 5189 5189 5190 5190 5191 5190 5189 5187 5186 5185 5185 5185 5186 5187 5188 5190 5192 5195 5198 5201 5204 5208 5212 5215 5219 5222 5226 5229 5233 5236 5240 5243 5247 5250 5253 5257 5260 5264 5268
5250 5247 5245 5243 5241 5239 5237 5235 5233 5232 5230 5228 5226 5225 5223 5222 5220 5219 5218 5216 5215 5214 5212 5211 5209 5208 5207 5206 5204 5203 5202 5200 5199 5197 5195 5194 5194 5193 5192 5191 5191 5190 5189 5189 5189 5189 5189 5189 5189 5190 5191 5191 5190 5189 5187 5185 5185 5185 5185 5186 5187 5188 5189 5191 5194 5197 5200 5203 5206 5210 5213 5216 5220 5223 5227 5230 5233 5237 5240 5244 5247 5250 5253 5257 5261 5265
5249 5247 5244 5242 5240 5238 5236 5235 5233 5231 5230 5228 5226 5224 5223 5221 5219 5218 5217 5215 5214 5212 5211 5210 5209 5207 5206 5205 5204 5202 5201 5199 5198 5196 5194 5193 5193 5192 5191 5191 5190 5189 5189 5189 5189 5189 5188 5189 5189 5190 5191 5191 5190 5188 5186 5186 5185 5185 5185 5186 5186 5187 5189 5190 5193 5195 5198 5201 5204 5208 5211 5214 5217 5220 5224 5227 5230 5234 5237 5240 5244 5247 5250 5254 5258 5262
5248 5246 5244 5242 5240 5238 5236 5234 5233 5231 5229 5227 5226 5224 5222 5220 5219 5217 5216 5214 5213 5212 5210 5209 5208 5207 5205 5204 5203 5202 5200 5199 5197 5195 5193 5193 5192 5192 5191 5190 5189 5189 5189 5189 5189 5189 5189 5189 5190 5191 5191 5191 5189 5187 5186 5186 5186 5186 5185 5186 5186 5187 5188 5190 5192 5194 5197 5199 5202 5205 5208 5211 5214 5218 5221 5224 5228 5231 5234 5237 5240 5244 5247 5251 5254 5259
5247 5245 5243 5241 5239 5237 5235 5234 5232 5230 5228 5226 5225 5223 5221 5219 5218 5216 5215 5214 5212 5211 5210 5208 5207 5206 5205 5204 5202 5201 5199 5198 5197 5195 5194 5193 5192 5191 5190 5189 5189 5189 5188 5188 5189 5189 5189 5190 5190 5191 5191 5190 5188 5187 5186 5186 5186 5186 5185 5186 5186 5187 5188 5190 5191 5193 5195 5198 5200 5203 5206 5209 5212 5215 5219 5222 5225 5228 5231 5234 5237 5240 5244 5248 5251 5255
5246 5244 5242 5240 5238 5236 5234 5233 5231 5229 5227 5225 5224 5222 5220 5219 5217 5216 5214 5213 5211 5210 5209 5208 5206 5205 5204 5203 5202 5200 5199 5198 5196 5195 5194 5193 5192 5191 5190 5189 5189 5188 5188 5188 5188 5189 5189 5189 5190 5190 5190 5189 5188 5187 5187 5187 5186 5186 5186 5186 5187 5188 5189 5190 5191 5193 5195 5197 5199 5201 5204 5207 5210 5213 5216 5219 5222 5225 5228 5231 5234 5237 5240 5244 5248 5251
5245 5243 5241 5239 5237 5235 5233 5231 5229 5228 5226 5224 5223 5221 5219 5218 5216 5215 5214 5212 5210 5209 5208 5207 5205 5204 5203 5202 5201 5200 5199 5198 5196 5194 5193 5193 5192 5190 5189 5189 5188 5188 5188 5188 5188 5189 5189 5189 5190 5190 5190 5189 5188 5187 5187 5187 5186 5186 5186 5186 5187 5188 5189 5190 5192 5193 5195 5197 5199 5201 5204 5206 5209 5211 5214 5217 5219 5222 5225 5228 5230 5234 5237 5240 5244 5247
5244 5241 5239 5237 5235 5233 5231 5230 5228 5226 5225 5223 5221 5220 5218 5217 5216 5214 5213 5211 5210 5209 5207 5206 5204 5203 5202 5201 5200 5199 5198 5197 5195 5194 5193 5192 5191 5191 5189 5189 5188 5188 5188 5189 5189 5188 5189 5189 5190 5190 5190 5189 5188 5188 5188 5187 5187 5187 5187 5187 5188 5189 5190 5191 5192 5194 5195 5197 5199 5201 5204 5206 5208 5210 5213 5216 5218 5221 5224 5226 5228 5231 5234 5237 5240 5243
5242 5240 5238 5235 5234 5231 5229 5228 5226 5225 5223 5222 5220 5219 5217 5216 5215 5214 5212 5210 5209 5208 5206 5205 5204 5202 5201 5200 5199 5198 5197 5196 5194 5193 5192 5191 5191 5191 5190 5189 5189 5189 5189 5189 5189 5188 5189 5189 5190 5190 5190 5189 5188 5188 5188 5188 5187 5187 5188 5188 5189 5190 5191 5192 5193 5194 5196 5198 5200 5202 5204 5206 5208 5210 5213 5214 5217 5219 5221 5224 5226 5229 5231 5234 5237 5240
5240 5238 5236 5234 5231 5229 5228 5226 5224 5223 5221 5220 5219 5217 5216 5215 5214 5213 5211 5210 5208 5207 5206 5204 5203 5202 5201 5199 5199 5197 5196 5195 5194 5193 5192 5191 5191 5191 5191 5190 5189 5189 5189 5189 5189 5189 5189 5189 5190 5190 5190 5189 5189 5189 5188 5188 5188 5188 5189 5189 5190 5191 5192 5193 5194 5195 5197 5199 5201 5203 5204 5205 5207 5209 5211 5213 5215 5217 5219 5221 5224 5228 5230 5232 5235 5239
5238 5236 5234 5232 5229 5228 5226 5224 5222 5221 5219 5218 5217 5216 5214 5214 5213 5211 5210 5209 5208 5206 5205 5204 5203 5202 5200 5199 5198 5197 5196 5195 5194 5193 5192 5192 5192 5192 5191 5191 5190 5189 5189 5189 5190 5190 5190 5189 5189 5190 5190 5189 5189 5189 5189 5189 5189 5189 5189 5190 5191 5192 5193 5194 5195 5196 5198 5201 5203 5203 5203 5204 5206 5208 5210 5212 5214 5216 5219 5221 5224 5227 5230 5232 5234 5237
5236 5234 5232 5230 5228 5226 5224 5223 5221 5219 5218 5217 5216 5214 5214 5213 5212 5211 5209 5208 5207 5206 5204 5204 5202 5201 5200 5199 5198 5197 5196 5195 5194 5194 5193 5193 5192 5192 5192 5191 5191 5191 5191 5191 5191 5191 5190 5190 5189 5189 5189 5189 5189 5190 5190 5189 5189 5190 5190 5191 5192 5193 5193 5194 5195 5197 5200 5202 5203 5203 5203 5204 5206 5208 5210 5212 5214 5216 5219 5221 5224 5226 5229 5232 5234 5237
5235 5233 5231 5229 5227 5225 5223 5222 5220 5219 5217 5216 5215 5214 5213 5213 5212 5211 5209 5208 5207 5205 5204 5204 5202 5201 5200 5199 5198 5197 5196 5195 5194 5194 5194 5193 5193 5192 5192 5192 5192 5191 5191 5191 5191 5190 5189 5189 5189 5189 5189 5189 5189 5190 5191 5190 5190 5191 5192 5192 5193 5194 5194 5195 5196 5199 5201 5202 5203 5203 5204 5205 5206 5208 5210 5212 5214 5217 5219 5221 5224 5226 5229 5232 5235 5237
5234 5232 5230 5228 5226 5224 5223 5221 5219 5218 5217 5216 5215 5214 5213 5213 5212 5210 5209 5208 5207 5206 5205 5204 5203 5202 5200 5199 5198 5197 5196 5196 5195 5195 5194 5194 5193 5193 5193 5193 5192 5192 5191 5190 5189 5189 5189 5189 5189 5189 5189 5189 5190 5191 5191 5191 5191 5192 5193 5193 5194 5195 5196 5196 5198 5200 5202 5203 5203 5204 5205 5206 5207 5209 5211 5213 5215 5218 5219 5222 5224 5226 5229 5231 5234 5238
5234 5231 5229 5228 5226 5224 5223 5221 5220 5219 5217 5216 5215 5214 5213 5212 5212 5210 5209 5208 5207 5206 5205 5204 5203 5202 5201 5199 5199 5198 5197 5197 5196 5195 5195 5194 5194 5194 5193 5193 5192 5191 5190 5189 5189 5189 5189 5190 5190 5190 5189 5190 5190 5191 5192 5192 5193 5193 5194 5194 5195 5196 5197 5198 5199 5201 5203 5204 5204 5205 5206 5208 5209 5211 5213 5214 5217 5219 5221 5223 5225 5227 5230 5233 5235 5238
5233 5231 5230 5228 5226 5225 5223 5222 5220 5219 5218 5217 5215 5214 5214 5213 5212 5211 5209 5209 5208 5207 5206 5205 5204 5203 5202 5200 5199 5199 5198 5198 5197 5196 5196 5195 5195 5194 5194 5193 5192 5191 5191 5191 5190 5190 5190 5190 5190 5190 5190 5191 5191 5192 5193 5193 5194 5194 5195 5196 5197 5198 5199 5200 5201 5202 5204 5204 5206 5207 5209 5210 5212 5213 5214 5216 5218 5220 5222 5224 5227 5229 5231 5234 5237 5240
5233 5232 5230 5228 5227 5225 5224 5222 5221 5220 5219 5217 5216 5215 5214 5213 5212 5211 5210 5209 5208 5207 5206 5205 5204 5204 5203 5202 5201 5200 5199 5199 5198 5198 5197 5196 5196 5195 5194 5193 5193 5192 5192 5191 5191 5191 5191 5191 5191 5191 5192 5192 5192 5193 5194 5194 5194 5195 5196 5197 5198 5199 5200 5201 5202 5204 5205 5206 5207 5209 5210 5212 5214 5215 5217 5218 5220 5222 5224 5226 5229 5231 5233 5236 5238 5241
5234 5232 5230 5229 5227 5226 5224 5223 5222 5220 5219 5218 5217 5216 5215 5214 5213 5212 5211 5210 5209 5208 5207 5206 5205 5204 5204 5203 5202 5201 5200 5199 5199 5199 5198 5198 5197 5196 5195 5194 5194 5193 5193 5192 5192 5192 5192 5192 5192 5192 5193 5193 5193 5194 5194 5195 5196 5197 5198 5199 5199 5200 5202 5203 5204 5205 5207 5208 5209 5211 5213 5214 5216 5217 5219 5220 5222 5224 5226 5228 5230 5233 5235 5237 5240 5242
5234 5232 5231 5229 5228 5227 5225 5224 5223 5221 5220 5219 5218 5217 5216 5215 5214 5213 5212 5211 5210 5209 5208 5207 5206 5205 5205 5204 5203 5202 5201 5200 5200 5199 5199 5198 5198 5197 5196 5196 5195 5194 5194 5193 5193 5193 5193 5193 5193 5194 5194 5194 5194 5195 5195 5196 5197 5198 5199 5200 5201 5202 5203 5204 5206 5207 5209 5210 5211 5213 5214 5216 5218 5219 5221 5222 5224 5226 5228 5230 5232 5234 5237 5239 5241 5244
5234 5233 5232 5230 5229 5228 5227 5225 5224 5223 5221 5220 5219 5218 5217 5216 5215 5214 5213 5212 5211 5210 5209 5208 5207 5206 5206 5204 5204 5203 5202 5201 5200 5200 5199 5199 5199 5198 5198 5197 5196 5196 5195 5195 5194 5194 5194 5194 5194 5194 5195 5195 5196 5196 5197 5197 5198 5199 5200 5202 5203 5204 5205 5206 5208 5209 5211 5212 5213 5215 5216 5218 5219 5221 5223 5224 5226 5227 5229 5232 5234 5236 5238 5240 5243 5245
5235 5234 5232 5231 5230 5229 5228 5226 5225 5224 5222 5221 5219 5219 5218 5217 5216 5215 5214 5213 5212 5211 5210 5209 5209 5208 5206 5205 5204 5203 5202 5201 5201 5200 5199 5199 5199 5198 5198 5198 5198 5197 5197 5197 5196 5196 5195 5195 5195 5195 5196 5197 5197 5198 5198 5199 5200 5201 5202 5203 5204 5206 5207 5208 5210 5211 5212 5214 5215 5216 5218 5219 5221 5223 5224 5226 5227 5229 5231 5233 5235 5237 5240 5242 5244 5246
5235 5234 5233 5232 5231 5229 5228 5227 5226 5224 5223 5222 5221 5219 5219 5218 5217 5216 5215 5214 5213 5212 5211 5210 5210 5209 5207 5206 5205 5204 5203 5202 5201 5200 5199 5199 5198 5198 5198 5198 5198 5198 5198 5198 5198 5197 5197 5197 5197 5197 5197 5198 5198 5199 5199 5200 5201 5203 5204 5205 5206 5208 5209 5210 5211 5212 5214 5215 5216 5218 5219 5221 5223 5224 5226 5227 5229 5230 5232 5234 5236 5239 5241 5243 5245 5247
5236 5235 5234 5233 5232 5230 5229 5228 5227 5225 5224 5223 5222 5221 5219 5219 5218 5217 5216 5215 5214 5213 5212 5212 5211 5209 5208 5207 5206 5205 5204 5203 5202 5201 5200 5199 5199 5198 5197 5197 5197 5198 5198 5199 5199 5199 5199 5199 5199 5199 5199 5199 5199 5200 5201 5202 5203 5204 5205 5207 5208 5209 5210 5211 5213 5214 5215 5216 5218 5219 5221 5222 5224 5226 5227 5229 5230 5232 5234 5236 5238 5240 5242 5244 5247 5249